Location: �terpigny
(49.8910°N, 2.9249°E)
Time: 12:21:33
(UTC+00:00)

UWE-3 - Pass Details

Date: 05 July 2022
Orbit: 583 x 677 km, 97.7° (Epoch: 14 August)

Event Time Altitude Azimuth Distance (km) Brightness Sun altitude
Rises 01:57:19 0° 30° (NNE) 2,913 ? -12.2°
Reaches altitude 10° 02:00:29 10° 55° (NE) 2,021 ? -12.0°
Maximum altitude 02:02:53 14° 88° (E) 1,760 ? -11.8°
Drops below altitude 10° 02:05:17 10° 121° (ESE) 2,044 ? -11.6°
Sets 02:08:31 0° 146° (SSE) 2,968 ? -11.3°
